WetterOnline ( https://www.wetteronline.de )

Wetter aktuell Ulm

Aktuelles Wetter: Ulm-Mähringen (592m)

6-stündlich | Neueste Meldungen
Ortszeit Temperatur Wetter
Do, 08.12. 19:00 -0.7° C bedeckt
Do, 08.12. 13:00 -0.1° C bedeckt
Do, 08.12. 7:00 -3.6° C wolkenlos
Do, 08.12. 1:00 -0.1° C bedeckt
Mi, 07.12. 19:00 0.8° C bedeckt
Mi, 07.12. 13:00 2.5° C bedeckt
Mi, 07.12. 7:00 0.5° C bedeckt
Mi, 07.12. 1:00 0.9° C bedeckt
Ortszeit Temperatur Wetter
Fr, 09.12. 0:30 -4.8° C bewölkt
Fr, 09.12. 0:20 -4.8° C bewölkt
Fr, 09.12. 0:10 -4.9° C bewölkt
Fr, 09.12. 0:00 -4.8° C wolkig
Do, 08.12. 23:50 -4.8° C wolkig
Do, 08.12. 23:40 -4.8° C wolkig
Do, 08.12. 23:30 -4.7° C leicht bewölkt
Do, 08.12. 23:00 -4.3° C wolkenlos
Do, 08.12. 22:30 -4.0° C wolkenlos
Do, 08.12. 22:00 -3.8° C fast wolkenlos
Do, 08.12. 21:30 -2.5° C wolkig
Ortszeit Relative Feuchte Sichtweite
Do, 08.12. 19:00 77% 50 km
Do, 08.12. 13:00 83% 40 km
Do, 08.12. 7:00 89% 23 km
Do, 08.12. 1:00 92% 26 km
Mi, 07.12. 19:00 88% 50 km
Mi, 07.12. 13:00 69% >70 km
Mi, 07.12. 7:00 85% 30 km
Mi, 07.12. 1:00 94% 19 km
Ortszeit Relative Feuchte Sichtweite
Fr, 09.12. 0:30 92% 35 km
Fr, 09.12. 0:20 92% -
Fr, 09.12. 0:10 92% -
Fr, 09.12. 0:00 92% 30 km
Do, 08.12. 23:50 92% -
Do, 08.12. 23:40 93% -
Do, 08.12. 23:30 92% 35 km
Do, 08.12. 23:00 92% 40 km
Do, 08.12. 22:30 90% 30 km
Do, 08.12. 22:00 91% 28 km
Do, 08.12. 21:30 85% 40 km
Ortszeit Niederschlagsmenge Niederschlagsart
Do, 08.12. 19:00 0.0 l/m2 in 12 Std. -
Do, 08.12. 13:00 0.0 l/m2 in 6 Std. -
Do, 08.12. 7:00 0.0 l/m2 in 12 Std. -
Do, 08.12. 1:00 0.0 l/m2 in 6 Std. -
Mi, 07.12. 19:00 0.0 l/m2 in 12 Std. -
Mi, 07.12. 13:00 0.0 l/m2 in 6 Std. -
Mi, 07.12. 7:00 0.1 l/m2 in 12 Std. Schnee, Sprühregen
Mi, 07.12. 1:00 0.0 l/m2 in 6 Std. -
Ortszeit Niederschlagsmenge Niederschlagsart
Fr, 09.12. 0:30 0.0 l/m2 in 1 Std. -
Fr, 09.12. 0:20 keine Meldung -
Fr, 09.12. 0:10 keine Meldung -
Fr, 09.12. 0:00 0.0 l/m2 in 1 Std. -
Do, 08.12. 23:50 keine Meldung -
Do, 08.12. 23:40 keine Meldung -
Do, 08.12. 23:30 0.0 l/m2 in 1 Std. -
Do, 08.12. 23:00 0.0 l/m2 in 1 Std. -
Do, 08.12. 22:30 0.0 l/m2 in 1 Std. -
Do, 08.12. 22:00 0.0 l/m2 in 1 Std. -
Do, 08.12. 21:30 0.0 l/m2 in 1 Std. -
Ortszeit Stärke Spitze Richtung
km/h Bft. km/h Grad Sektor
Do, 08.12. 19:00 4 1 14 280° W
Do, 08.12. 13:00 4 1 11 90° O
Do, 08.12. 7:00 2 1 9 220° SW
Do, 08.12. 1:00 4 1 7 260° W
Mi, 07.12. 19:00 2 1 22 220° SW
Mi, 07.12. 13:00 11 2 22 270° W
Mi, 07.12. 7:00 7 2 14 300° NW
Mi, 07.12. 1:00 4 1 18 280° W
Ortszeit Stärke Spitze Richtung
km/h Bft. km/h Grad Sektor
Fr, 09.12. 0:30 2 1 6 290° W
Fr, 09.12. 0:20 2 1 - 290° W
Fr, 09.12. 0:10 4 1 - 310° NW
Fr, 09.12. 0:00 4 1 4 310° NW
Do, 08.12. 23:50 4 1 - 310° NW
Do, 08.12. 23:40 4 1 - 310° NW
Do, 08.12. 23:30 0 0 4 - -
Do, 08.12. 23:00 2 1 6 300° NW
Do, 08.12. 22:30 4 1 4 260° W
Do, 08.12. 22:00 2 1 4 290° W
Do, 08.12. 21:30 0 0 4 - -
Ortszeit Untergrenze Bedeckung Gattung
total tief tief mittel hoch
Do, 08.12. 19:00 810 m 8/8 8/8 - - -
Do, 08.12. 13:00 1050 m 8/8 8/8 - - -
Do, 08.12. 7:00 - 0/8 0/8 - - -
Do, 08.12. 1:00 1350 m 8/8 8/8 - - -
Mi, 07.12. 19:00 1260 m 8/8 8/8 - - -
Mi, 07.12. 13:00 1500 m 8/8 8/8 - - -
Mi, 07.12. 7:00 1290 m 8/8 8/8 - - -
Mi, 07.12. 1:00 420 m 8/8 8/8 - - -
Ortszeit Bedeckungsgrad in Achtel und Wolkenuntergrenze
Fr, 09.12. 0:30 7(2700m)
Fr, 09.12. 0:20 7(2700m)
Fr, 09.12. 0:10 7
Fr, 09.12. 0:00 6(2700m)
Do, 08.12. 23:50 6(2700m)
Do, 08.12. 23:40 6
Do, 08.12. 23:30 4(2700m)
Do, 08.12. 23:00 keine Wolken
Do, 08.12. 22:30 keine Wolken
Do, 08.12. 22:00 1(780m)
Do, 08.12. 21:30 6(840m)
Ortszeit Luftdruck NN (hPa) Tendenz (hPa in 3 Std.)
Do, 08.12. 19:00 1010 - 0,5
Do, 08.12. 13:00 1011 - 1,6
Do, 08.12. 7:00 1014 - 1,0
Do, 08.12. 1:00 1015 - 1,1
Mi, 07.12. 19:00 1016 - 0,6
Mi, 07.12. 13:00 1018 - 1,2
Mi, 07.12. 7:00 1019 - 0,2
Mi, 07.12. 1:00 1019 0,0
Ortszeit Luftdruck NN (hPa) Tendenz (hPa in 3 Std.)
Fr, 09.12. 0:30 1010 - 0,5
Fr, 09.12. 0:20 1010 keine Meldung
Fr, 09.12. 0:10 1010 keine Meldung
Fr, 09.12. 0:00 1011 - 0,3
Do, 08.12. 23:50 1011 keine Meldung
Do, 08.12. 23:40 1011 keine Meldung
Do, 08.12. 23:30 1011 - 0,3
Do, 08.12. 23:00 1011 - 0,3
Do, 08.12. 22:30 1011 - 0,4
Do, 08.12. 22:00 1010 - 0,6
Do, 08.12. 21:30 1010 - 0,3
Ortszeit Schneehöhe (cm)
Do, 08.12. 19:00 0
Do, 08.12. 13:00 0
Do, 08.12. 7:00 0
Do, 08.12. 1:00 0
Mi, 07.12. 19:00 0
Mi, 07.12. 13:00 0
Mi, 07.12. 7:00 0
Mi, 07.12. 1:00 0
Ortszeit Schneehöhe (cm)
Fr, 09.12. 0:30 0
Fr, 09.12. 0:20 0
Fr, 09.12. 0:10 0
Fr, 09.12. 0:00 0
Do, 08.12. 23:50 0
Do, 08.12. 23:40 0
Do, 08.12. 23:30 0
Do, 08.12. 23:00 0
Do, 08.12. 22:30 0
Do, 08.12. 22:00 0
Do, 08.12. 21:30 0
Link zu dieser Seite / Seite empfehlen

Das Wetter in ...